Location: Mercogliano
(40.9167°N, 14.7333°E)
Time: 07:31:43
(UTC+00:00)

Cosmos 2150 Rocket - Pass Details

Date: 22 January 2021
Orbit: 748 x 808 km, 74.0° (Epoch: 04 March)

Event Time Altitude Azimuth Distance (km) Brightness Sun altitude
Rises 05:38:50 0° 338° (NNW) 3,270 6.9 -8.0°
Reaches altitude 10° 05:41:13 10° 336° (NNW) 2,347 6.1 -7.6°
Maximum altitude 05:46:31 69° 254° (WSW) 849 4.1 -6.6°
Drops below altitude 10° 05:51:52 10° 172° (S) 2,367 7.0 -5.7°
Sets 05:54:17 0° 170° (S) 3,299 7.8 -5.2°
